Taos, NM

2:55 PM MDT on April 26, 2017 (GMT -0600)
Taos Municipal

Weather History for KSKX - June, 2014

Change the Weather History Date:

Monday, June 9, 2014

  Actual Average Record
Temperature  
Mean Temperature 55 °F -  
Max Temperature 73 °F 76 °F 89 °F (2013)
Min Temperature 37 °F 40 °F 33 °F (2008)
Degree Days  
Heating Degree Days 10    
Growing Degree Days 5 (Base 50)    
Moisture  
Dew Point 24 °F    
Average Humidity 34    
Maximum Humidity 70    
Minimum Humidity 11    
Precipitation  
Precipitation 0.00 in - - ()
Sea Level Pressure  
Sea Level Pressure 30.18 in    
Wind  
Wind Speed 10 mph (NNE)    
Max Wind Speed 17 mph    
Max Gust Speed 23 mph    
Visibility 10 miles    
Events      
Averages and records for this station are not official NWS values.
T = Trace of Precipitation, MM = Missing Value Source: NWS Daily Summary

Daily Weather History Graph

Daily Weather History Graph

Search for Another Location

Airport or City:

Trip Planner

Search our weather history database for the weather conditions in past years. The results will help you decide how hot, cold, wet, or windy it might be!

Date:

Astronomy

Jun. 09, 2014 Rise Set
Actual Time 5:44 AM MDT 8:19 PM MDT
Civil Twilight 5:13 AM MDT 8:50 PM MDT
Nautical Twilight 4:36 AM MDT 9:27 PM MDT
Astronomical Twilight 3:54 AM MDT 10:09 PM MDT
Moon 4:48 PM MDT (6/9) 3:07 AM MDT (6/9)
Length of Visible Light 15h 36m
Length of Day
14h 35m
Waxing Gibbous, 85% of the Moon is Illuminated
Jun 9
Waxing Gibbous
Jun 12
Full
Jun 19
Last Quarter
Jun 27
New
Jul 5
First Quarter

Hourly Weather History & Observations

Time (MDT) Temp. Windchill Dew Point Humidity Pressure Visibility Wind Dir Wind Speed Gust Speed Precip Events Conditions
12:15 AM 51.8 °F - 28.4 °F 41% 30.15 in 10.0 mi North 12.7 mph - N/A   Clear
12:35 AM 50.0 °F - 28.4 °F 43% 30.14 in 10.0 mi North 10.4 mph - N/A   Clear
12:55 AM 48.2 °F - 28.4 °F 46% 30.14 in 10.0 mi North 12.7 mph - N/A   Clear
1:15 AM 48.2 °F - 28.4 °F 46% 30.15 in 10.0 mi North 11.5 mph - N/A   Clear
1:35 AM 46.4 °F 41.1 °F 30.2 °F 53% 30.15 in 10.0 mi NNW 11.5 mph - N/A   Clear
1:55 AM 44.6 °F 39.2 °F 30.2 °F 57% 30.15 in 10.0 mi North 10.4 mph - N/A   Clear
2:15 AM - - - N/A% 30.15 in 10.0 mi North - - N/A   Clear
2:35 AM 46.4 °F 40.7 °F 30.2 °F 53% 30.17 in 10.0 mi North 12.7 mph - N/A   Clear
2:55 AM - - - N/A% 30.17 in 10.0 mi North 12.7 mph - N/A   Clear
3:15 AM - - - N/A% 30.17 in 10.0 mi NNW 11.5 mph - N/A   Clear
3:35 AM 42.8 °F - 30.2 °F 61% - 10.0 mi North - - N/A   Clear
3:55 AM 42.8 °F 36.2 °F 30.2 °F 61% 30.18 in 10.0 mi NNW 12.7 mph - N/A   Clear
4:15 AM 42.8 °F 36.2 °F 30.2 °F 61% 30.19 in 10.0 mi NW 12.7 mph - N/A   Clear
4:35 AM 42.8 °F 37.0 °F 30.2 °F 61% 30.20 in 10.0 mi NW 10.4 mph - N/A   Clear
4:55 AM 41.0 °F 34.7 °F 30.2 °F 65% 30.20 in 10.0 mi NW 10.4 mph - N/A   Clear
5:15 AM 39.2 °F 35.0 °F 30.2 °F 70% 30.20 in 10.0 mi NW 5.8 mph - N/A   Clear
5:35 AM 39.2 °F 35.0 °F 28.4 °F 65% 30.21 in 10.0 mi NW 5.8 mph - N/A   Clear
5:55 AM 37.4 °F 30.8 °F 28.4 °F 70% 30.22 in 10.0 mi WNW 9.2 mph - N/A   Clear
6:15 AM 39.2 °F 32.5 °F 30.2 °F 70% 30.22 in 10.0 mi NW 10.4 mph - N/A   Clear
6:35 AM 41.0 °F 35.8 °F 30.2 °F 65% 30.22 in 10.0 mi NNW 8.1 mph - N/A   Clear
6:55 AM 42.8 °F 38.0 °F 32.0 °F 66% 30.22 in 10.0 mi NW 8.1 mph - N/A   Clear
7:15 AM 46.4 °F 42.4 °F 32.0 °F 57% 30.23 in 10.0 mi NNW 8.1 mph - N/A   Clear
7:35 AM 48.2 °F - 30.2 °F 50% 30.22 in 10.0 mi North 11.5 mph - N/A   Clear
7:55 AM 51.8 °F - 28.4 °F 41% 30.23 in 10.0 mi North 12.7 mph 19.6 mph N/A   Clear
8:15 AM 51.8 °F - 28.4 °F 41% 30.24 in 10.0 mi NNE 16.1 mph - N/A   Clear
8:35 AM 53.6 °F - 28.4 °F 38% 30.24 in 10.0 mi North 16.1 mph 21.9 mph N/A   Clear
9:15 AM 55.4 °F - 28.4 °F 36% 30.24 in 10.0 mi North 16.1 mph - N/A   Clear
9:35 AM 55.4 °F - 28.4 °F 36% 30.25 in 10.0 mi North 16.1 mph 20.7 mph N/A   Clear
9:55 AM 55.4 °F - 28.4 °F 36% 30.24 in 10.0 mi NNE 16.1 mph 23.0 mph N/A   Clear
10:35 AM 57.2 °F - 28.4 °F 33% 30.24 in 10.0 mi North 17.3 mph 23.0 mph N/A   Clear
10:55 AM 59.0 °F - 26.6 °F 29% 30.23 in 10.0 mi North 12.7 mph 21.9 mph N/A   Clear
11:15 AM 60.8 °F - 26.6 °F 27% 30.24 in 10.0 mi North 9.2 mph 18.4 mph N/A   Clear
11:35 AM 62.6 °F - 24.8 °F 24% 30.23 in 10.0 mi North 12.7 mph 20.7 mph N/A   Clear
11:55 AM 62.6 °F - 24.8 °F 24% 30.22 in 10.0 mi North 11.5 mph - N/A   Clear
12:15 PM 64.4 °F - 23.0 °F 21% 30.22 in 10.0 mi North 12.7 mph 16.1 mph N/A   Clear
12:35 PM 64.4 °F - 23.0 °F 21% 30.21 in 10.0 mi North 17.3 mph 21.9 mph N/A   Clear
2:15 PM 69.8 °F - 19.4 °F 15% 30.18 in 10.0 mi NE 9.2 mph - N/A   Clear
2:35 PM 69.8 °F - 17.6 °F 14% 30.17 in 10.0 mi North 10.4 mph - N/A   Clear
2:55 PM 71.6 °F - 17.6 °F 13% 30.16 in 10.0 mi NNW 8.1 mph 17.3 mph N/A   Clear
3:15 PM 71.6 °F - 17.6 °F 13% 30.16 in 10.0 mi NNE 13.8 mph 20.7 mph N/A   Clear
3:35 PM 71.6 °F - 15.8 °F 12% 30.15 in 10.0 mi NE 6.9 mph - N/A   Clear
3:55 PM 73.4 °F - 15.8 °F 11% 30.15 in 10.0 mi North 10.4 mph - N/A   Clear
4:15 PM 73.4 °F - 15.8 °F 11% 30.14 in 10.0 mi NNE 4.6 mph - N/A   Clear
4:35 PM 73.4 °F - 15.8 °F 11% 30.14 in 10.0 mi NNW 6.9 mph - N/A   Clear
4:55 PM 73.4 °F - 15.8 °F 11% 30.13 in 10.0 mi Calm Calm - N/A   Clear
5:15 PM 73.4 °F - 15.8 °F 11% 30.13 in 10.0 mi West 10.4 mph - N/A   Clear
5:35 PM 71.6 °F - 15.8 °F 12% 30.13 in 10.0 mi Calm Calm - N/A   Clear
5:55 PM 73.4 °F - 15.8 °F 11% 30.12 in 10.0 mi SSW 3.5 mph - N/A   Clear
6:15 PM 73.4 °F - 15.8 °F 11% 30.11 in 10.0 mi NE 4.6 mph - N/A   Clear
6:35 PM 73.4 °F - 17.6 °F 12% 30.12 in 10.0 mi SSE 4.6 mph - N/A   Clear
6:55 PM 73.4 °F - 15.8 °F 11% 30.12 in 10.0 mi Calm Calm - N/A   Clear
7:15 PM 73.4 °F - 15.8 °F 11% 30.12 in 10.0 mi ENE 3.5 mph - N/A   Clear
7:35 PM 71.6 °F - 15.8 °F 12% 30.12 in 10.0 mi ESE 3.5 mph - N/A   Clear
7:55 PM 69.8 °F - 17.6 °F 14% 30.13 in 10.0 mi SE 5.8 mph - N/A   Clear
8:15 PM 66.2 °F - 19.4 °F 17% 30.14 in 10.0 mi SE 4.6 mph - N/A   Clear
8:35 PM 62.6 °F - 17.6 °F 18% 30.14 in 10.0 mi SE 4.6 mph - N/A   Clear
8:55 PM 60.8 °F - 17.6 °F 19% 30.15 in 10.0 mi ENE 8.1 mph - N/A   Clear
9:15 PM 55.4 °F - 21.2 °F 26% 30.16 in 10.0 mi East 10.4 mph - N/A   Clear
9:35 PM 53.6 °F - 21.2 °F 28% 30.17 in 10.0 mi East 13.8 mph - N/A   Clear
9:55 PM 55.4 °F - 26.6 °F 33% 30.18 in 10.0 mi East 11.5 mph - N/A   Clear
10:15 PM 57.2 °F - 26.6 °F 31% 30.18 in 10.0 mi ESE 10.4 mph - N/A   Clear
10:35 PM 55.4 °F - 26.6 °F 33% 30.19 in 10.0 mi East 10.4 mph - N/A   Clear
10:55 PM 55.4 °F - 26.6 °F 33% 30.19 in 10.0 mi East 6.9 mph - N/A   Clear
11:15 PM 53.6 °F - 26.6 °F 35% 30.19 in 10.0 mi East 6.9 mph - N/A   Clear
11:35 PM 53.6 °F - 26.6 °F 35% 30.19 in 10.0 mi East 8.1 mph - N/A   Clear
11:55 PM 51.8 °F - 26.6 °F 38% 30.20 in 10.0 mi East 5.8 mph - N/A   Clear